| time (UTC) | temp F | wind direction | speed MPH | gust MPH | rain 1hr in | rain 24hr in | rain mn in | humidity % | barometer mb |
| 20260831205503 | 78 | 312 | 0.0 | 0.0 | 0.00 | 0.22 | 0.01 | 77 | 1019.9 |
| 20260831205005 | 77 | 312 | 0.0 | 0.0 | 0.00 | 0.22 | 0.01 | 79 | 1019.9 |
| 20260831204503 | 77 | 312 | 0.0 | 0.0 | 0.00 | 0.22 | 0.01 | 81 | 1020.0 |
| 20260831204004 | 79 | 312 | 0.0 | 0.0 | 0.00 | 0.22 | 0.01 | 75 | 1020.1 |
| 20260831203505 | 79 | 312 | 0.0 | 0.0 | 0.00 | 0.22 | 0.01 | 77 | 1020.1 |
| 20260831203006 | 79 | 312 | 0.0 | 0.0 | 0.00 | 0.22 | 0.01 | 77 | 1020.1 |
| 20260831202503 | 78 | 312 | 0.0 | 0.0 | 0.00 | 0.22 | 0.01 | 77 | 1020.1 |
| 20260831202006 | 79 | 312 | 0.0 | 0.0 | 0.00 | 0.22 | 0.01 | 75 | 1020.1 |
| 20260831201503 | 78 | 312 | 0.0 | 0.0 | 0.00 | 0.22 | 0.01 | 77 | 1020.1 |
| 20260831201006 | 78 | 312 | 0.0 | 2.0 | 0.00 | 0.22 | 0.01 | 76 | 1020.1 |
| 20260831200505 | 78 | 312 | 0.0 | 2.0 | 0.00 | 0.22 | 0.01 | 77 | 1020.1 |
| 20260831200006 | 79 | 312 | 1.0 | 3.0 | 0.00 | 0.22 | 0.01 | 78 | 1020.1 |
| 20260831195503 | 79 | 312 | 0.0 | 3.0 | 0.00 | 0.22 | 0.01 | 79 | 1020.1 |
| 20260831195009 | 79 | 312 | 0.0 | 2.0 | 0.00 | 0.22 | 0.01 | 77 | 1020.3 |
| 20260831194503 | 78 | 312 | 1.0 | 3.0 | 0.00 | 0.22 | 0.01 | 76 | 1020.4 |
| 20260831194005 | 78 | 312 | 1.0 | 3.0 | 0.00 | 0.22 | 0.01 | 78 | 1020.3 |
| 20260831193505 | 78 | 312 | 0.0 | 3.0 | 0.00 | 0.22 | 0.01 | 77 | 1020.3 |
| 20260831193005 | 78 | 311 | 0.0 | 3.0 | 0.00 | 0.22 | 0.01 | 77 | 1020.4 |
| 20260831192504 | 78 | 311 | 2.0 | 3.0 | 0.00 | 0.22 | 0.01 | 77 | 1020.4 |
| 20260831191504 | 77 | 263 | 0.0 | 0.0 | 0.00 | 0.22 | 0.01 | 81 | 1020.6 |
| 20260831191004 | 76 | 263 | 0.0 | 0.0 | 0.00 | 0.22 | 0.01 | 84 | 1020.7 |
| 20260831190505 | 76 | 263 | 0.0 | 3.0 | 0.00 | 0.22 | 0.01 | 83 | 1020.6 |
| 20260831185503 | 76 | 263 | 0.0 | 1.0 | 0.00 | 0.22 | 0.01 | 83 | 1020.6 |
| 20260831185006 | 76 | 263 | 0.0 | 2.0 | 0.00 | 0.22 | 0.01 | 81 | 1020.9 |
| 20260831184503 | 77 | 263 | 0.0 | 2.0 | 0.00 | 0.22 | 0.01 | 82 | 1021.0 |
| 20260831184004 | 77 | 263 | 0.0 | 5.0 | 0.00 | 0.22 | 0.01 | 79 | 1020.9 |
| 20260831183004 | 78 | 171 | 0.0 | 3.0 | 0.00 | 0.22 | 0.01 | 81 | 1020.8 |
| 20260831182503 | 78 | 217 | 0.0 | 4.0 | 0.00 | 0.22 | 0.01 | 76 | 1020.9 |
| 20260831182006 | 79 | 249 | 1.0 | 4.0 | 0.00 | 0.22 | 0.01 | 78 | 1020.8 |
| 20260831181503 | 78 | 284 | 0.0 | 3.0 | 0.00 | 0.22 | 0.01 | 78 | 1020.8 |
| 20260831181005 | 78 | 170 | 1.0 | 3.0 | 0.00 | 0.22 | 0.01 | 77 | 1020.9 |
| 20260831180503 | 78 | 171 | 0.0 | 0.0 | 0.00 | 0.22 | 0.01 | 79 | 1020.8 |
| 20260831180007 | 76 | 171 | 0.0 | 1.0 | 0.00 | 0.22 | 0.01 | 83 | 1020.9 |
| 20260831175503 | 76 | 171 | 0.0 | 1.0 | 0.00 | 0.22 | 0.01 | 81 | 1021.0 |
| 20260831175006 | 75 | 171 | 0.0 | 0.0 | 0.00 | 0.22 | 0.01 | 83 | 1020.9 |
| 20260831173505 | 76 | 171 | 0.0 | 0.0 | 0.00 | 0.22 | 0.01 | 81 | 1021.0 |
| 20260831173005 | 76 | 171 | 0.0 | 0.0 | 0.00 | 0.22 | 0.01 | 82 | 1021.2 |
| 20260831172503 | 75 | 171 | 0.0 | 0.0 | 0.00 | 0.22 | 0.01 | 83 | 1021.1 |
| 20260831172006 | 75 | 171 | 0.0 | 0.0 | 0.00 | 0.22 | 0.01 | 83 | 1021.1 |
| 20260831171004 | 76 | 171 | 0.0 | 2.0 | 0.00 | 0.22 | 0.01 | 82 | 1021.0 |
| 20260831170006 | 77 | 171 | 0.0 | 3.0 | 0.00 | 0.22 | 0.01 | 76 | 1021.1 |
| 20260831165506 | 77 | 183 | 0.0 | 2.0 | 0.00 | 0.22 | 0.01 | 79 | 1021.1 |
| 20260831165006 | 77 | 183 | 1.0 | 2.0 | 0.00 | 0.22 | 0.01 | 79 | 1021.0 |
| 20260831164503 | 77 | 155 | 0.0 | 3.0 | 0.00 | 0.22 | 0.01 | 80 | 1021.1 |
| 20260831164004 | 78 | 164 | 2.0 | 3.0 | 0.00 | 0.22 | 0.01 | 78 | 1021.1 |
| 20260831163505 | 77 | 304 | 1.0 | 3.0 | 0.00 | 0.22 | 0.01 | 77 | 1021.1 |
| 20260831163004 | 77 | 161 | 2.0 | 3.0 | 0.00 | 0.22 | 0.01 | 76 | 1021.1 |
| 20260831162005 | 78 | 124 | 0.0 | 5.0 | 0.00 | 0.22 | 0.01 | 79 | 1021.3 |
| 20260831161503 | 77 | 208 | 1.0 | 3.0 | 0.00 | 0.22 | 0.01 | 77 | 1021.4 |
| 20260831161005 | 77 | 192 | 1.0 | 3.0 | 0.00 | 0.22 | 0.01 | 80 | 1021.3 |
| 20260831160505 | 76 | 220 | 0.0 | 2.0 | 0.00 | 0.22 | 0.01 | 80 | 1021.4 |
| 20260831160010 | 75 | 213 | 0.0 | 0.0 | 0.00 | 0.22 | 0.01 | 81 | 1021.2 |
| 20260831155503 | 76 | 213 | 0.0 | 1.0 | 0.00 | 0.22 | 0.01 | 79 | 1021.3 |
| 20260831155005 | 76 | 213 | 0.0 | 1.0 | 0.00 | 0.22 | 0.01 | 78 | 1021.4 |
| 20260831154504 | 75 | 213 | 0.0 | 1.0 | 0.00 | 0.22 | 0.01 | 80 | 1021.3 |
| 20260831154004 | 75 | 311 | 0.0 | 2.0 | 0.00 | 0.22 | 0.01 | 79 | 1021.3 |
| 20260831153505 | 75 | 311 | 0.0 | 3.0 | 0.00 | 0.22 | 0.01 | 83 | 1021.3 |
| 20260831153005 | 74 | 307 | 1.0 | 2.0 | 0.00 | 0.22 | 0.01 | 84 | 1021.3 |
| 20260831152504 | 74 | 212 | 0.0 | 0.0 | 0.00 | 0.22 | 0.01 | 86 | 1021.4 |
| 20260831151005 | 72 | 241 | 0.0 | 0.0 | 0.00 | 0.22 | 0.01 | 89 | 1021.2 |
| 20260831150503 | 72 | 241 | 0.0 | 0.0 | 0.00 | 0.22 | 0.01 | 89 | 1021.3 |
| 20260831150005 | 72 | 241 | 0.0 | 0.0 | 0.00 | 0.22 | 0.01 | 87 | 1021.3 |
| 20260831145004 | 72 | 241 | 0.0 | 0.0 | 0.00 | 0.22 | 0.01 | 88 | 1021.7 |
| 20260831144503 | 72 | 241 | 0.0 | 0.0 | 0.00 | 0.22 | 0.01 | 88 | 1021.7 |
| 20260831144006 | 72 | 241 | 0.0 | 0.0 | 0.00 | 0.22 | 0.01 | 89 | 1021.7 |
| 20260831143503 | 72 | 241 | 0.0 | 0.0 | 0.00 | 0.22 | 0.01 | 88 | 1021.7 |
| 20260831143004 | 72 | 241 | 0.0 | 1.0 | 0.00 | 0.22 | 0.01 | 88 | 1021.6 |
| 20260831142505 | 73 | 241 | 0.0 | 1.0 | 0.00 | 0.22 | 0.01 | 88 | 1021.5 |
| 20260831142004 | 72 | 221 | 0.0 | 0.0 | 0.00 | 0.22 | 0.01 | 90 | 1021.5 |
| 20260831141503 | 73 | 221 | 0.0 | 0.0 | 0.00 | 0.22 | 0.01 | 92 | 1021.5 |
| 20260831141005 | 72 | 221 | 0.0 | 0.0 | 0.00 | 0.22 | 0.01 | 91 | 1021.4 |
| 20260831140503 | 72 | 221 | 0.0 | 0.0 | 0.00 | 0.22 | 0.01 | 92 | 1021.5 |
| 20260831140005 | 72 | 221 | 0.0 | 1.0 | 0.00 | 0.22 | 0.01 | 91 | 1021.5 |
| 20260831135504 | 72 | 221 | 0.0 | 1.0 | 0.00 | 0.22 | 0.01 | 91 | 1021.6 |
| 20260831135004 | 72 | 221 | 0.0 | 1.0 | 0.00 | 0.22 | 0.01 | 90 | 1021.6 |
| 20260831134503 | 72 | 221 | 0.0 | 1.0 | 0.00 | 0.22 | 0.01 | 92 | 1021.4 |
| 20260831134006 | 72 | 221 | 0.0 | 1.0 | 0.00 | 0.22 | 0.01 | 93 | 1021.5 |
| 20260831133004 | 71 | 221 | 0.0 | 0.0 | 0.00 | 0.22 | 0.01 | 97 | 1021.4 |
| 20260831132504 | 70 | 221 | 0.0 | 0.0 | 0.00 | 0.22 | 0.01 | 97 | 1021.4 |
| 20260831132004 | 70 | 221 | 0.0 | 0.0 | 0.00 | 0.22 | 0.01 | 98 | 1021.4 |
| 20260831131503 | 70 | 221 | 0.0 | 0.0 | 0.00 | 0.22 | 0.01 | 98 | 1021.5 |
| 20260831131005 | 70 | 221 | 0.0 | 0.0 | 0.00 | 0.22 | 0.01 | 98 | 1021.5 |
| 20260831130503 | 70 | 221 | 0.0 | 0.0 | 0.00 | 0.22 | 0.01 | 98 | 1021.5 |
| 20260831130005 | 70 | 221 | 0.0 | 0.0 | 0.00 | 0.25 | 0.01 | 98 | 1021.5 |
| 20260831125006 | 70 | 221 | 0.0 | 0.0 | 0.00 | 0.25 | 0.01 | 98 | 1021.5 |
| 20260831124503 | 70 | 221 | 0.0 | 1.0 | 0.00 | 0.25 | 0.01 | 98 | 1021.5 |
| 20260831124004 | 70 | 221 | 0.0 | 1.0 | 0.00 | 0.25 | 0.01 | 98 | 1021.5 |
| 20260831123512 | 70 | 221 | 0.0 | 0.0 | 0.00 | 0.25 | 0.01 | 98 | 1021.4 |
| 20260831123004 | 70 | 221 | 0.0 | 2.0 | 0.00 | 0.25 | 0.01 | 98 | 1021.4 |
| 20260831122503 | 70 | 215 | 0.0 | 1.0 | 0.00 | 0.25 | 0.01 | 98 | 1021.4 |
| 20260831122005 | 70 | 215 | 0.0 | 1.0 | 0.00 | 0.25 | 0.01 | 98 | 1021.3 |
| 20260831121004 | 69 | 215 | 0.0 | 0.0 | 0.00 | 0.25 | 0.01 | 98 | 1021.2 |
| 20260831120503 | 69 | 215 | 0.0 | 0.0 | 0.00 | 0.25 | 0.01 | 98 | 1021.2 |
| 20260831120008 | 70 | 215 | 0.0 | 0.0 | 0.00 | 0.25 | 0.01 | 98 | 1021.2 |
| 20260831115503 | 69 | 215 | 0.0 | 0.0 | 0.00 | 0.25 | 0.01 | 98 | 1021.3 |
| 20260831114504 | 69 | 215 | 0.0 | 1.0 | 0.00 | 0.25 | 0.01 | 98 | 1021.4 |
| 20260831114005 | 69 | 215 | 0.0 | 0.0 | 0.00 | 0.25 | 0.01 | 98 | 1021.0 |
| 20260831113503 | 69 | 215 | 0.0 | 0.0 | 0.00 | 0.25 | 0.01 | 98 | 1020.9 |
| 20260831112004 | 69 | 215 | 0.0 | 1.0 | 0.00 | 0.25 | 0.01 | 98 | 1020.9 |
| 20260831111505 | 69 | 215 | 0.0 | 0.0 | 0.00 | 0.25 | 0.01 | 98 | 1020.8 |
| 20260831111004 | 69 | 215 | 0.0 | 0.0 | 0.00 | 0.25 | 0.01 | 98 | 1020.7 |
| 20260831110004 | 69 | 215 | 0.0 | 0.0 | 0.00 | 0.25 | 0.01 | 98 | 1020.7 |
| 20260831105503 | 69 | 215 | 0.0 | 0.0 | 0.00 | 0.25 | 0.01 | 98 | 1020.8 |
| 20260831105006 | 69 | 215 | 0.0 | 0.0 | 0.00 | 0.25 | 0.01 | 98 | 1020.8 |
| 20260831104503 | 69 | 215 | 0.0 | 0.0 | 0.00 | 0.25 | 0.01 | 97 | 1020.8 |
| 20260831104004 | 69 | 215 | 0.0 | 0.0 | 0.00 | 0.25 | 0.01 | 98 | 1020.8 |
| 20260831103505 | 69 | 215 | 0.0 | 0.0 | 0.00 | 0.25 | 0.01 | 98 | 1020.8 |
| 20260831103004 | 69 | 215 | 0.0 | 0.0 | 0.00 | 0.25 | 0.01 | 98 | 1020.6 |
| 20260831102503 | 69 | 215 | 0.0 | 0.0 | 0.00 | 0.25 | 0.01 | 98 | 1020.6 |
| 20260831102005 | 69 | 215 | 0.0 | 0.0 | 0.00 | 0.25 | 0.01 | 98 | 1020.6 |
| 20260831101503 | 69 | 215 | 0.0 | 0.0 | 0.00 | 0.25 | 0.01 | 98 | 1020.6 |
| 20260831101004 | 69 | 215 | 0.0 | 0.0 | 0.00 | 0.25 | 0.01 | 98 | 1020.5 |
| 20260831100505 | 69 | 215 | 0.0 | 0.0 | 0.00 | 0.25 | 0.01 | 98 | 1020.5 |
| 20260831100005 | 70 | 215 | 0.0 | 0.0 | 0.00 | 0.25 | 0.01 | 98 | 1020.3 |
| 20260831095503 | 70 | 215 | 0.0 | 0.0 | 0.00 | 0.25 | 0.01 | 97 | 1020.3 |
| 20260831095008 | 70 | 215 | 0.0 | 0.0 | 0.00 | 0.25 | 0.01 | 97 | 1020.3 |
| 20260831094503 | 70 | 215 | 0.0 | 0.0 | 0.00 | 0.25 | 0.01 | 97 | 1020.3 |
| 20260831094004 | 70 | 215 | 0.0 | 0.0 | 0.00 | 0.25 | 0.01 | 97 | 1020.4 |
| 20260831093505 | 70 | 215 | 0.0 | 2.0 | 0.00 | 0.25 | 0.01 | 97 | 1020.3 |
| 20260831092503 | 70 | 214 | 1.0 | 2.0 | 0.00 | 0.25 | 0.01 | 97 | 1019.9 |
| 20260831092006 | 70 | 214 | 0.0 | 2.0 | 0.00 | 0.25 | 0.01 | 97 | 1019.9 |
| 20260831091503 | 69 | 214 | 1.0 | 2.0 | 0.00 | 0.25 | 0.01 | 97 | 1019.8 |
| 20260831091004 | 69 | 214 | 1.0 | 2.0 | 0.00 | 0.25 | 0.01 | 97 | 1019.9 |
| 20260831090505 | 69 | 214 | 1.0 | 2.0 | 0.00 | 0.25 | 0.01 | 97 | 1019.8 |
| 20260831085504 | 69 | 209 | 0.0 | 0.0 | 0.00 | 0.25 | 0.01 | 97 | 1019.7 |
| 20260831085004 | 69 | 209 | 0.0 | 1.0 | 0.00 | 0.25 | 0.01 | 97 | 1019.7 |
| 20260831084503 | 69 | 209 | 0.0 | 1.0 | 0.00 | 0.25 | 0.01 | 97 | 1019.7 |
| 20260831084005 | 69 | 209 | 0.0 | 0.0 | 0.00 | 0.25 | 0.01 | 97 | 1019.7 |
| 20260831083503 | 69 | 209 | 0.0 | 0.0 | 0.00 | 0.25 | 0.01 | 97 | 1019.6 |
| 20260831082505 | 69 | 209 | 0.0 | 0.0 | 0.00 | 0.25 | 0.01 | 97 | 1019.7 |
| 20260831082004 | 69 | 209 | 0.0 | 0.0 | 0.00 | 0.25 | 0.01 | 97 | 1019.7 |
| 20260831081005 | 69 | 209 | 0.0 | 0.0 | 0.00 | 0.25 | 0.01 | 97 | 1019.6 |
| 20260831080503 | 69 | 209 | 0.0 | 0.0 | 0.00 | 0.25 | 0.01 | 97 | 1019.7 |
| 20260831080005 | 69 | 209 | 0.0 | 0.0 | 0.00 | 0.25 | 0.01 | 97 | 1019.7 |
| 20260831075504 | 69 | 209 | 0.0 | 0.0 | 0.00 | 0.25 | 0.01 | 97 | 1019.8 |
| 20260831074503 | 69 | 209 | 0.0 | 0.0 | 0.00 | 0.25 | 0.01 | 97 | 1019.7 |
| 20260831074005 | 69 | 209 | 0.0 | 0.0 | 0.00 | 0.25 | 0.01 | 97 | 1019.9 |
| 20260831073503 | 69 | 209 | 0.0 | 0.0 | 0.00 | 0.25 | 0.01 | 96 | 1019.9 |
| 20260831073004 | 69 | 209 | 0.0 | 0.0 | 0.00 | 0.25 | 0.01 | 96 | 1020.0 |
| 20260831072005 | 69 | 209 | 0.0 | 0.0 | 0.00 | 0.25 | 0.01 | 96 | 1020.0 |
| 20260831071504 | 69 | 209 | 0.0 | 0.0 | 0.00 | 0.25 | 0.01 | 96 | 1020.0 |
| 20260831071004 | 69 | 209 | 0.0 | 0.0 | 0.00 | 0.25 | 0.01 | 96 | 1020.1 |
| 20260831070504 | 69 | 209 | 0.0 | 0.0 | 0.00 | 0.25 | 0.01 | 96 | 1020.1 |
| 20260831070007 | 69 | 209 | 0.0 | 0.0 | 0.00 | 0.25 | 0.01 | 96 | 1020.1 |
| 20260831065008 | 69 | 209 | 0.0 | 0.0 | 0.00 | 0.25 | 0.01 | 96 | 1019.9 |
| 20260831064502 | 69 | 209 | 0.0 | 0.0 | 0.00 | 0.25 | 0.01 | 96 | 1020.0 |
| 20260831064004 | 69 | 209 | 0.0 | 0.0 | 0.00 | 0.25 | 0.01 | 96 | 1020.0 |
| 20260831063504 | 69 | 209 | 0.0 | 0.0 | 0.00 | 0.25 | 0.01 | 96 | 1019.9 |
| 20260831063004 | 69 | 209 | 0.0 | 0.0 | 0.00 | 0.25 | 0.01 | 96 | 1019.9 |
| 20260831062502 | 69 | 209 | 0.0 | 0.0 | 0.00 | 0.25 | 0.01 | 96 | 1019.9 |
| 20260831062005 | 69 | 209 | 0.0 | 0.0 | 0.00 | 0.25 | 0.01 | 96 | 1020.1 |
| 20260831061502 | 69 | 209 | 0.0 | 0.0 | 0.00 | 0.25 | 0.01 | 96 | 1020.1 |
| 20260831060504 | 69 | 209 | 0.0 | 0.0 | 0.00 | 0.25 | 0.01 | 96 | 1020.2 |
| 20260831060005 | 69 | 209 | 0.0 | 0.0 | 0.00 | 0.25 | 0.01 | 96 | 1020.3 |
| 20260831055502 | 69 | 209 | 0.0 | 0.0 | 0.00 | 0.25 | 0.01 | 96 | 1020.4 |
| 20260831055004 | 69 | 209 | 0.0 | 0.0 | 0.00 | 0.25 | 0.01 | 96 | 1020.4 |
| 20260831054504 | 70 | 209 | 0.0 | 0.0 | 0.00 | 0.25 | 0.01 | 96 | 1020.4 |
| 20260831054003 | 70 | 210 | 0.0 | 0.0 | 0.00 | 0.25 | 0.01 | 95 | 1020.5 |
| 20260831053003 | 70 | 210 | 0.0 | 1.0 | 0.00 | 0.25 | 0.01 | 95 | 1020.4 |
| 20260831052502 | 70 | 210 | 0.0 | 1.0 | 0.00 | 0.25 | 0.01 | 95 | 1020.4 |
| 20260831052003 | 70 | 210 | 0.0 | 0.0 | 0.00 | 0.25 | 0.01 | 95 | 1020.4 |
| 20260831051502 | 70 | 210 | 0.0 | 0.0 | 0.01 | 0.25 | 0.01 | 95 | 1020.4 |
| 20260831051003 | 70 | 210 | 0.0 | 0.0 | 0.01 | 0.25 | 0.01 | 95 | 1020.3 |
| 20260831050502 | 70 | 210 | 0.0 | 0.0 | 0.01 | 0.25 | 0.01 | 95 | 1020.2 |
| 20260831050005 | 70 | 210 | 0.0 | 3.0 | 0.01 | 0.25 | 0.01 | 95 | 1020.2 |
| 20260831045502 | 70 | 210 | 1.0 | 3.0 | 0.03 | 0.25 | 0.01 | 95 | 1020.4 |
| 20260831045003 | 70 | 310 | 0.0 | 1.0 | 0.04 | 0.25 | 0.01 | 95 | 1020.2 |
| 20260831044504 | 70 | 310 | 0.0 | 0.0 | 0.04 | 0.25 | 0.01 | 95 | 1020.2 |
| 20260831044005 | 70 | 310 | 0.0 | 0.0 | 0.04 | 0.25 | 0.01 | 95 | 1020.2 |
| 20260831043504 | 70 | 310 | 0.0 | 0.0 | 0.04 | 0.25 | 0.01 | 94 | 1020.2 |
| 20260831043006 | 70 | 310 | 0.0 | 0.0 | 0.04 | 0.25 | 0.01 | 94 | 1020.1 |
| 20260831042504 | 70 | 310 | 0.0 | 0.0 | 0.04 | 0.25 | 0.01 | 94 | 1020.3 |
| 20260831042004 | 70 | 310 | 0.0 | 0.0 | 0.04 | 0.25 | 0.01 | 94 | 1020.5 |
| 20260831041505 | 70 | 310 | 0.0 | 0.0 | 0.03 | 0.24 | 0.00 | 94 | 1020.5 |
| 20260831041005 | 70 | 310 | 0.0 | 0.0 | 0.04 | 0.24 | 0.00 | 94 | 1020.4 |
| 20260831040504 | 70 | 310 | 0.0 | 0.0 | 0.06 | 0.24 | 0.00 | 94 | 1020.3 |
| 20260831035504 | 70 | 310 | 0.0 | 3.0 | 0.10 | 0.22 | 0.22 | 93 | 1020.5 |
| 20260831035005 | 70 | 150 | 0.0 | 1.0 | 0.12 | 0.21 | 0.21 | 93 | 1020.4 |
| 20260831034505 | 70 | 150 | 0.0 | 0.0 | 0.13 | 0.21 | 0.21 | 93 | 1020.3 |
| 20260831034005 | 71 | 150 | 0.0 | 2.0 | 0.13 | 0.21 | 0.21 | 93 | 1020.3 |
| 20260831033505 | 71 | 150 | 0.0 | 2.0 | 0.14 | 0.21 | 0.21 | 93 | 1020.3 |
| 20260831033006 | 71 | 150 | 0.0 | 2.0 | 0.14 | 0.21 | 0.21 | 93 | 1020.4 |
| 20260831032504 | 71 | 150 | 1.0 | 2.0 | 0.15 | 0.21 | 0.21 | 93 | 1020.4 |
| 20260831031004 | 73 | 321 | 3.0 | 7.0 | 0.15 | 0.19 | 0.19 | 93 | 1020.5 |
| 20260831030504 | 74 | 293 | 3.0 | 9.0 | 0.14 | 0.17 | 0.17 | 94 | 1020.8 |
| 20260831030006 | 75 | 291 | 4.0 | 9.0 | 0.11 | 0.14 | 0.14 | 94 | 1020.7 |
| 20260831025504 | 75 | 360 | 1.0 | 4.0 | 0.09 | 0.12 | 0.12 | 94 | 1020.4 |
| 20260831024504 | 75 | 329 | 1.0 | 2.0 | 0.05 | 0.08 | 0.08 | 94 | 1020.3 |
| 20260831024006 | 75 | 205 | 0.0 | 2.0 | 0.05 | 0.08 | 0.08 | 94 | 1020.2 |
| 20260831022505 | 75 | 294 | 0.0 | 0.0 | 0.03 | 0.06 | 0.06 | 93 | 1020.3 |
| 20260831022005 | 75 | 294 | 0.0 | 2.0 | 0.02 | 0.05 | 0.05 | 93 | 1020.3 |
| 20260831021504 | 75 | 277 | 1.0 | 2.0 | 0.02 | 0.05 | 0.05 | 93 | 1020.4 |
| 20260831021006 | 76 | 333 | 0.0 | 1.0 | 0.01 | 0.04 | 0.04 | 93 | 1020.4 |
| 20260831020504 | 75 | 333 | 0.0 | 0.0 | 0.00 | 0.03 | 0.03 | 93 | 1020.2 |
| 20260831020006 | 75 | 333 | 0.0 | 0.0 | 0.00 | 0.03 | 0.03 | 92 | 1020.2 |
| 20260831015505 | 75 | 333 | 0.0 | 0.0 | 0.00 | 0.03 | 0.03 | 92 | 1020.2 |
| 20260831014504 | 76 | 333 | 0.0 | 0.0 | 0.00 | 0.03 | 0.03 | 92 | 1020.4 |
| 20260831013504 | 76 | 333 | 0.0 | 0.0 | 0.00 | 0.03 | 0.03 | 92 | 1020.3 |
| 20260831013005 | 76 | 333 | 0.0 | 0.0 | 0.00 | 0.03 | 0.03 | 92 | 1020.4 |
| 20260831012505 | 76 | 333 | 0.0 | 0.0 | 0.00 | 0.03 | 0.03 | 91 | 1020.3 |
| 20260831012006 | 76 | 333 | 0.0 | 0.0 | 0.00 | 0.03 | 0.03 | 91 | 1020.4 |
| 20260831011504 | 76 | 333 | 0.0 | 0.0 | 0.00 | 0.03 | 0.03 | 91 | 1020.3 |
| 20260831011008 | 76 | 333 | 0.0 | 0.0 | 0.00 | 0.03 | 0.03 | 91 | 1020.3 |
| 20260831005506 | 76 | 333 | 0.0 | 0.0 | 0.00 | 0.03 | 0.03 | 90 | 1020.2 |
| 20260831005006 | 76 | 333 | 0.0 | 0.0 | 0.00 | 0.03 | 0.03 | 90 | 1020.2 |
| 20260831004504 | 76 | 333 | 0.0 | 0.0 | 0.00 | 0.03 | 0.03 | 90 | 1020.2 |
| 20260831004008 | 76 | 333 | 0.0 | 0.0 | 0.00 | 0.03 | 0.03 | 90 | 1020.1 |
| 20260831003504 | 77 | 333 | 0.0 | 0.0 | 0.00 | 0.03 | 0.03 | 89 | 1019.9 |
| 20260831003005 | 77 | 333 | 0.0 | 0.0 | 0.00 | 0.03 | 0.03 | 89 | 1019.7 |
| 20260831002005 | 77 | 333 | 0.0 | 0.0 | 0.00 | 0.03 | 0.03 | 89 | 1019.9 |
| 20260831001507 | 77 | 333 | 0.0 | 0.0 | 0.00 | 0.03 | 0.03 | 89 | 1019.8 |
| 20260831001006 | 77 | 333 | 0.0 | 0.0 | 0.00 | 0.03 | 0.03 | 89 | 1019.7 |
| 20260831000504 | 77 | 333 | 0.0 | 0.0 | 0.00 | 0.03 | 0.03 | 89 | 1019.7 |
| 20260831000006 | 77 | 333 | 0.0 | 0.0 | 0.00 | 0.03 | 0.03 | 88 | 1019.6 |
| 20260830235506 | 77 | 333 | 0.0 | 0.0 | 0.00 | 0.03 | 0.03 | 88 | 1019.7 |
| 20260830234005 | 77 | 333 | 0.0 | 0.0 | 0.00 | 0.03 | 0.03 | 88 | 1019.6 |
| 20260830233504 | 77 | 333 | 0.0 | 0.0 | 0.00 | 0.03 | 0.03 | 88 | 1019.7 |
| 20260830233005 | 77 | 333 | 0.0 | 0.0 | 0.00 | 0.03 | 0.03 | 87 | 1019.8 |
| 20260830232504 | 77 | 333 | 0.0 | 0.0 | 0.00 | 0.03 | 0.03 | 87 | 1019.7 |
| 20260830232007 | 78 | 333 | 0.0 | 0.0 | 0.00 | 0.03 | 0.03 | 86 | 1019.7 |
| 20260830231504 | 78 | 333 | 0.0 | 0.0 | 0.00 | 0.03 | 0.03 | 85 | 1019.7 |
| 20260830231006 | 78 | 333 | 0.0 | 0.0 | 0.00 | 0.03 | 0.03 | 84 | 1019.8 |
| 20260830230507 | 79 | 333 | 0.0 | 0.0 | 0.00 | 0.03 | 0.03 | 83 | 1019.7 |
| 20260830230005 | 79 | 333 | 0.0 | 0.0 | 0.00 | 0.03 | 0.03 | 82 | 1019.8 |
| 20260830225506 | 80 | 333 | 0.0 | 0.0 | 0.00 | 0.03 | 0.03 | 81 | 1019.7 |
| 20260830225005 | 80 | 333 | 0.0 | 4.0 | 0.00 | 0.03 | 0.03 | 81 | 1019.7 |
| 20260830224504 | 80 | 333 | 2.0 | 4.0 | 0.00 | 0.03 | 0.03 | 81 | 1019.8 |
| 20260830224007 | 80 | 144 | 1.0 | 2.0 | 0.00 | 0.03 | 0.03 | 81 | 1019.8 |
| 20260830223504 | 81 | 144 | 1.0 | 5.0 | 0.00 | 0.03 | 0.03 | 80 | 1019.7 |
| 20260830223005 | 81 | 300 | 2.0 | 5.0 | 0.00 | 0.03 | 0.03 | 79 | 1019.7 |
| 20260830222505 | 81 | 190 | 1.0 | 3.0 | 0.00 | 0.03 | 0.03 | 80 | 1019.6 |
| 20260830222005 | 81 | 346 | 1.0 | 3.0 | 0.00 | 0.03 | 0.03 | 79 | 1019.7 |
| 20260830221504 | 82 | 336 | 1.0 | 4.0 | 0.00 | 0.03 | 0.03 | 80 | 1019.7 |
| 20260830220504 | 82 | 265 | 0.0 | 7.0 | 0.00 | 0.03 | 0.03 | 79 | 1019.7 |
| 20260830215005 | 82 | 286 | 2.0 | 3.0 | 0.00 | 0.03 | 0.03 | 79 | 1019.4 |
| 20260830214504 | 81 | 179 | 1.0 | 3.0 | 0.00 | 0.03 | 0.03 | 79 | 1019.5 |
| 20260830214006 | 81 | 221 | 0.0 | 4.0 | 0.00 | 0.03 | 0.03 | 80 | 1019.5 |
| 20260830213504 | 82 | 229 | 1.0 | 4.0 | 0.00 | 0.03 | 0.03 | 77 | 1019.5 |
| 20260830213006 | 82 | 282 | 1.0 | 4.0 | 0.00 | 0.03 | 0.03 | 77 | 1019.5 |
| 20260830212503 | 82 | 190 | 0.0 | 4.0 | 0.00 | 0.03 | 0.03 | 78 | 1019.5 |
| 20260830212007 | 82 | 205 | 1.0 | 4.0 | 0.00 | 0.03 | 0.03 | 79 | 1019.5 |
| 20260830211504 | 82 | 178 | 2.0 | 6.0 | 0.00 | 0.03 | 0.03 | 78 | 1019.6 |
| 20260830211005 | 82 | 267 | 2.0 | 6.0 | 0.00 | 0.03 | 0.03 | 78 | 1019.5 |